contact: severine.martini@mio.osupytheas.fr, dominique.lefevre@mio.osupytheas.fr
Project:EMSO Ligure-ouest http://www.emso-fr.org/EMSO-France
Sensor Microcat Sea-Bird SBE37 SMP,  Serial 57510 
DOI : "https://doi.org/10.17882/97948" 
Title:EMSO Ligure Ouest : Data Bathybot capteur Microcat - deploiement 2023-04-28
Datetime,Profondeur,Latitude,Longitude,Temperature,Conductivite,Pression,Salinite
time,m,degree_north,degree_east,degree_C,S/m,db,PSU 
2023-12-21T00:00:49,2420,42.8014,5.9826,13.3157,4.60020,2453.514,38.4799
2023-12-21T00:03:49,2420,42.8014,5.9826,13.3056,4.60028,2453.514,38.4906
2023-12-21T00:06:49,2420,42.8014,5.9826,13.3212,4.60216,2453.528,38.4929
2023-12-21T00:09:49,2420,42.8014,5.9826,13.3103,4.60055,2453.491,38.4885
2023-12-21T00:12:49,2420,42.8014,5.9826,13.3061,4.60022,2453.514,38.4896
2023-12-21T00:15:49,2420,42.8014,5.9826,13.3056,4.60098,2453.514,38.4973
2023-12-21T00:18:49,2420,42.8014,5.9826,13.3049,4.60130,2453.514,38.5009
2023-12-21T00:21:49,2420,42.8014,5.9826,13.3004,4.60110,2453.514,38.5034
2023-12-21T00:24:49,2420,42.8014,5.9826,13.3069,4.60046,2453.514,38.4910
2023-12-21T00:27:49,2420,42.8014,5.9826,13.3025,4.60091,2453.551,38.4996
2023-12-21T00:30:49,2420,42.8014,5.9826,13.3053,4.60067,2453.514,38.4947
2023-12-21T00:33:49,2420,42.8014,5.9826,13.3218,4.60089,2453.537,38.4803
2023-12-21T00:36:49,2420,42.8014,5.9826,13.3160,4.60016,2453.528,38.4792
2023-12-21T00:39:49,2420,42.8014,5.9826,13.3081,4.60026,2453.551,38.4879
2023-12-21T00:42:49,2420,42.8014,5.9826,13.3027,4.60053,2453.574,38.4959
2023-12-21T00:45:49,2420,42.8014,5.9826,13.3099,4.60007,2453.559,38.4843
2023-12-21T00:48:49,2420,42.8014,5.9826,13.3069,4.59971,2453.544,38.4839
2023-12-21T00:51:49,2420,42.8014,5.9826,13.3057,4.59961,2453.537,38.4842
2023-12-21T00:54:49,2420,42.8014,5.9826,13.3068,4.59939,2453.537,38.4810
2023-12-21T00:57:49,2420,42.8014,5.9826,13.3070,4.59977,2453.537,38.4843
2023-12-21T01:00:50,2420,42.8014,5.9826,13.3050,4.59969,2453.559,38.4856
2023-12-21T01:03:49,2420,42.8014,5.9826,13.3103,4.59982,2453.514,38.4816
2023-12-21T01:06:49,2420,42.8014,5.9826,13.3087,4.59968,2453.574,38.4819
2023-12-21T01:09:49,2420,42.8014,5.9826,13.3092,4.59990,2453.537,38.4835
2023-12-21T01:12:49,2420,42.8014,5.9826,13.3105,4.60012,2453.551,38.4843
2023-12-21T01:15:49,2420,42.8014,5.9826,13.3105,4.60003,2453.528,38.4834
2023-12-21T01:18:49,2420,42.8014,5.9826,13.3086,4.59974,2453.514,38.4825
2023-12-21T01:21:49,2420,42.8014,5.9826,13.3084,4.59988,2453.551,38.4841
2023-12-21T01:24:49,2420,42.8014,5.9826,13.3095,4.59972,2453.514,38.4814
2023-12-21T01:27:49,2420,42.8014,5.9826,13.3129,4.60011,2453.537,38.4818
2023-12-21T01:30:49,2420,42.8014,5.9826,13.3086,4.59950,2453.551,38.4802
2023-12-21T01:33:49,2420,42.8014,5.9826,13.3060,4.59984,2453.559,38.4860
2023-12-21T01:36:49,2420,42.8014,5.9826,13.3088,4.59974,2453.528,38.4823
2023-12-21T01:39:49,2420,42.8014,5.9826,13.3105,4.59976,2453.528,38.4809
2023-12-21T01:42:49,2420,42.8014,5.9826,13.3101,4.59978,2453.537,38.4814
2023-12-21T01:45:49,2420,42.8014,5.9826,13.3075,4.59963,2453.537,38.4826
2023-12-21T01:48:49,2420,42.8014,5.9826,13.3066,4.59952,2453.514,38.4824
2023-12-21T01:51:49,2420,42.8014,5.9826,13.3062,4.59962,2453.559,38.4838
2023-12-21T01:54:49,2420,42.8014,5.9826,13.3067,4.59951,2453.537,38.4822
2023-12-21T01:57:49,2420,42.8014,5.9826,13.3070,4.59977,2453.551,38.4843
2023-12-21T02:00:49,2420,42.8014,5.9826,13.3052,4.59986,2453.537,38.4870
2023-12-21T02:03:49,2420,42.8014,5.9826,13.3061,4.59929,2453.537,38.4808
2023-12-21T02:06:49,2420,42.8014,5.9826,13.3062,4.59984,2453.514,38.4858
2023-12-21T02:09:49,2420,42.8014,5.9826,13.3435,4.59987,2453.537,38.4492
2023-12-21T02:12:49,2420,42.8014,5.9826,13.3137,4.59971,2453.574,38.4772
2023-12-21T02:15:49,2420,42.8014,5.9826,13.3012,4.59982,2453.537,38.4906
2023-12-21T02:18:50,2420,42.8014,5.9826,13.2990,4.60010,2453.537,38.4954
2023-12-21T02:21:49,2420,42.8014,5.9826,13.2992,4.60013,2453.537,38.4955
2023-12-21T02:24:49,2420,42.8014,5.9826,13.2978,4.59999,2453.537,38.4957
2023-12-21T02:27:49,2420,42.8014,5.9826,13.3006,4.60011,2453.559,38.4939
2023-12-21T02:30:49,2420,42.8014,5.9826,13.3316,4.60011,2453.514,38.4632
2023-12-21T02:33:49,2420,42.8014,5.9826,13.3423,4.60027,2453.514,38.4542
2023-12-21T02:36:49,2420,42.8014,5.9826,13.3032,4.59999,2453.537,38.4902
2023-12-21T02:39:49,2420,42.8014,5.9826,13.3090,4.60044,2453.491,38.4888
2023-12-21T02:42:49,2420,42.8014,5.9826,13.2998,4.59990,2453.514,38.4928
2023-12-21T02:45:49,2420,42.8014,5.9826,13.3247,4.60057,2453.514,38.4744
2023-12-21T02:48:49,2420,42.8014,5.9826,13.3032,4.60019,2453.537,38.4922
2023-12-21T02:51:49,2420,42.8014,5.9826,13.3149,4.59989,2453.514,38.4777
2023-12-21T02:54:49,2420,42.8014,5.9826,13.2993,4.59987,2453.514,38.4930
2023-12-21T02:57:49,2420,42.8014,5.9826,13.3019,4.60015,2453.537,38.4931
2023-12-21T03:00:49,2420,42.8014,5.9826,13.3050,4.60050,2453.537,38.4933
2023-12-21T03:03:49,2420,42.8014,5.9826,13.3160,4.60047,2453.543,38.4820
2023-12-21T03:06:49,2420,42.8014,5.9826,13.3137,4.60076,2453.551,38.4870
2023-12-21T03:09:49,2420,42.8014,5.9826,13.3362,4.60073,2453.469,38.4645
2023-12-21T03:12:49,2420,42.8014,5.9826,13.3294,4.60014,2453.469,38.4657
2023-12-21T03:15:49,2420,42.8014,5.9826,13.3078,4.60031,2453.491,38.4887
2023-12-21T03:18:49,2420,42.8014,5.9826,13.3029,4.59985,2453.551,38.4892
2023-12-21T03:21:49,2420,42.8014,5.9826,13.3019,4.60076,2453.559,38.4989
2023-12-21T03:24:49,2420,42.8014,5.9826,13.3029,4.60092,2453.537,38.4993
2023-12-21T03:27:49,2420,42.8014,5.9826,13.3019,4.60031,2453.537,38.4945
2023-12-21T03:30:49,2420,42.8014,5.9826,13.3103,4.59977,2453.537,38.4811
2023-12-21T03:33:49,2420,42.8014,5.9826,13.3052,4.60011,2453.514,38.4894
2023-12-21T03:36:49,2420,42.8014,5.9826,13.3267,4.60191,2453.537,38.4850
2023-12-21T03:39:49,2420,42.8014,5.9826,13.3264,4.60059,2453.528,38.4730
2023-12-21T03:42:49,2420,42.8014,5.9826,13.3087,4.60098,2453.537,38.4942
2023-12-21T03:45:49,2420,42.8014,5.9826,13.3038,4.60008,2453.559,38.4905
2023-12-21T03:48:48,2420,42.8014,5.9826,13.2994,4.59996,2453.537,38.4938
2023-12-21T03:51:49,2420,42.8014,5.9826,13.2982,4.60009,2453.537,38.4962
2023-12-21T03:54:49,2420,42.8014,5.9826,13.2979,4.59938,2453.551,38.4897
2023-12-21T03:57:49,2420,42.8014,5.9826,13.2999,4.59927,2453.514,38.4867
2023-12-21T04:00:49,2420,42.8014,5.9826,13.2988,4.59986,2453.537,38.4934
2023-12-21T04:03:49,2420,42.8014,5.9826,13.2982,4.59940,2453.537,38.4897
2023-12-21T04:06:49,2420,42.8014,5.9826,13.2980,4.59931,2453.537,38.4890
2023-12-21T04:09:49,2420,42.8014,5.9826,13.2975,4.59924,2453.551,38.4888
2023-12-21T04:12:49,2420,42.8014,5.9826,13.2976,4.59921,2453.537,38.4884
2023-12-21T04:15:49,2420,42.8014,5.9826,13.2971,4.59918,2453.522,38.4887
2023-12-21T04:18:49,2420,42.8014,5.9826,13.2978,4.59925,2453.528,38.4886
2023-12-21T04:21:49,2420,42.8014,5.9826,13.2975,4.59917,2453.537,38.4882
2023-12-21T04:24:49,2420,42.8014,5.9826,13.2975,4.59920,2453.551,38.4884
2023-12-21T04:27:49,2420,42.8014,5.9826,13.2977,4.59920,2453.537,38.4883
2023-12-21T04:30:49,2420,42.8014,5.9826,13.2973,4.59915,2453.537,38.4882
2023-12-21T04:33:49,2420,42.8014,5.9826,13.2974,4.59917,2453.551,38.4883
2023-12-21T04:36:49,2420,42.8014,5.9826,13.2975,4.59914,2453.514,38.4880
2023-12-21T04:39:49,2420,42.8014,5.9826,13.2978,4.59915,2453.537,38.4877
2023-12-21T04:42:49,2420,42.8014,5.9826,13.2976,4.59925,2453.514,38.4888
2023-12-21T04:45:49,2420,42.8014,5.9826,13.2973,4.59916,2453.559,38.4882
2023-12-21T04:48:49,2420,42.8014,5.9826,13.2974,4.59913,2453.537,38.4879
2023-12-21T04:51:49,2420,42.8014,5.9826,13.2972,4.59917,2453.537,38.4884
2023-12-21T04:54:49,2420,42.8014,5.9826,13.2975,4.59921,2453.514,38.4885
2023-12-21T04:57:49,2420,42.8014,5.9826,13.2975,4.59920,2453.514,38.4885
2023-12-21T05:00:49,2420,42.8014,5.9826,13.2979,4.59926,2453.537,38.4886
2023-12-21T05:03:49,2420,42.8014,5.9826,13.2975,4.59917,2453.537,38.4882
2023-12-21T05:06:49,2420,42.8014,5.9826,13.2978,4.59916,2453.528,38.4878
2023-12-21T05:09:49,2420,42.8014,5.9826,13.2972,4.59931,2453.537,38.4898
2023-12-21T05:12:49,2420,42.8014,5.9826,13.2975,4.59923,2453.537,38.4887
2023-12-21T05:15:49,2420,42.8014,5.9826,13.2979,4.59931,2453.491,38.4891
2023-12-21T05:18:49,2420,42.8014,5.9826,13.2975,4.59920,2453.537,38.4884
2023-12-21T05:21:49,2420,42.8014,5.9826,13.2972,4.59915,2453.514,38.4883
2023-12-21T05:24:49,2420,42.8014,5.9826,13.2975,4.59911,2453.514,38.4876
2023-12-21T05:27:49,2420,42.8014,5.9826,13.2973,4.59911,2453.514,38.4877
2023-12-21T05:30:49,2420,42.8014,5.9826,13.2976,4.59915,2453.514,38.4879
2023-12-21T05:33:49,2420,42.8014,5.9826,13.2978,4.59913,2453.491,38.4875
2023-12-21T05:36:49,2420,42.8014,5.9826,13.2975,4.59912,2453.499,38.4878
2023-12-21T05:39:49,2420,42.8014,5.9826,13.2976,4.59914,2453.499,38.4878
2023-12-21T05:42:49,2420,42.8014,5.9826,13.2974,4.59917,2453.499,38.4882
2023-12-21T05:45:49,2420,42.8014,5.9826,13.2976,4.59921,2453.491,38.4885
2023-12-21T05:48:49,2420,42.8014,5.9826,13.2979,4.59921,2453.514,38.4881
2023-12-21T05:51:49,2420,42.8014,5.9826,13.2976,4.59926,2453.469,38.4889
2023-12-21T05:54:49,2420,42.8014,5.9826,13.2975,4.59922,2453.514,38.4887
2023-12-21T05:57:50,2420,42.8014,5.9826,13.2973,4.59923,2453.514,38.4890
2023-12-21T06:00:49,2420,42.8014,5.9826,13.2971,4.59917,2453.491,38.4885
2023-12-21T06:03:49,2420,42.8014,5.9826,13.2983,4.59932,2453.491,38.4888
2023-12-21T06:06:49,2420,42.8014,5.9826,13.2977,4.59918,2453.499,38.4881
2023-12-21T06:09:49,2420,42.8014,5.9826,13.2977,4.59918,2453.469,38.4881
2023-12-21T06:12:49,2420,42.8014,5.9826,13.2977,4.59917,2453.477,38.4880
2023-12-21T06:15:49,2420,42.8014,5.9826,13.2973,4.59922,2453.514,38.4889
2023-12-21T06:18:49,2420,42.8014,5.9826,13.2973,4.59917,2453.491,38.4884
2023-12-21T06:21:49,2420,42.8014,5.9826,13.2973,4.59918,2453.514,38.4885
2023-12-21T06:24:49,2420,42.8014,5.9826,13.2971,4.59917,2453.514,38.4885
2023-12-21T06:27:49,2420,42.8014,5.9826,13.2975,4.59920,2453.528,38.4885
2023-12-21T06:30:49,2420,42.8014,5.9826,13.2974,4.59914,2453.514,38.4880
2023-12-21T06:33:49,2420,42.8014,5.9826,13.2990,4.59917,2453.454,38.4867
2023-12-21T06:36:49,2420,42.8014,5.9826,13.2977,4.59927,2453.491,38.4889
2023-12-21T06:39:49,2420,42.8014,5.9826,13.2978,4.59922,2453.491,38.4884
2023-12-21T06:42:49,2420,42.8014,5.9826,13.2973,4.59916,2453.446,38.4883
2023-12-21T06:45:49,2420,42.8014,5.9826,13.2978,4.59916,2453.514,38.4878
2023-12-21T06:48:49,2420,42.8014,5.9826,13.2978,4.59920,2453.491,38.4882
2023-12-21T06:51:49,2420,42.8014,5.9826,13.2973,4.59918,2453.491,38.4884
2023-12-21T06:54:50,2420,42.8014,5.9826,13.2975,4.59914,2453.514,38.4879
2023-12-21T06:57:49,2420,42.8014,5.9826,13.2973,4.59909,2453.469,38.4877
2023-12-21T07:00:49,2420,42.8014,5.9826,13.2972,4.59914,2453.514,38.4882
2023-12-21T07:03:49,2420,42.8014,5.9826,13.2975,4.59907,2453.491,38.4873
2023-12-21T07:06:49,2420,42.8014,5.9826,13.2972,4.59908,2453.469,38.4876
2023-12-21T07:09:49,2420,42.8014,5.9826,13.2976,4.59906,2453.491,38.4871
2023-12-21T07:12:49,2420,42.8014,5.9826,13.2973,4.59908,2453.491,38.4876
2023-12-21T07:15:49,2420,42.8014,5.9826,13.2975,4.59908,2453.514,38.4873
2023-12-21T07:18:49,2420,42.8014,5.9826,13.2976,4.59911,2453.469,38.4875
2023-12-21T07:21:49,2420,42.8014,5.9826,13.2974,4.59914,2453.469,38.4880
2023-12-21T07:24:49,2420,42.8014,5.9826,13.2973,4.59906,2453.499,38.4873
2023-12-21T07:27:49,2420,42.8014,5.9826,13.2974,4.59913,2453.483,38.4879
2023-12-21T07:30:50,2420,42.8014,5.9826,13.2975,4.59916,2453.491,38.4881
2023-12-21T07:33:49,2420,42.8014,5.9826,13.2974,4.59917,2453.469,38.4883
2023-12-21T07:36:49,2420,42.8014,5.9826,13.2974,4.59911,2453.477,38.4877
2023-12-21T07:39:49,2420,42.8014,5.9826,13.2975,4.59907,2453.491,38.4873
2023-12-21T07:42:49,2420,42.8014,5.9826,13.2978,4.59908,2453.454,38.4871
2023-12-21T07:45:49,2420,42.8014,5.9826,13.2974,4.59911,2453.506,38.4877
2023-12-21T07:48:49,2420,42.8014,5.9826,13.2973,4.59903,2453.469,38.4871
2023-12-21T07:51:49,2420,42.8014,5.9826,13.2971,4.59910,2453.491,38.4879
2023-12-21T07:54:49,2420,42.8014,5.9826,13.2975,4.59910,2453.469,38.4876
2023-12-21T07:57:49,2420,42.8014,5.9826,13.2972,4.59905,2453.469,38.4874
2023-12-21T08:00:49,2420,42.8014,5.9826,13.2975,4.59911,2453.491,38.4876
2023-12-21T08:03:49,2420,42.8014,5.9826,13.2975,4.59907,2453.491,38.4873
2023-12-21T08:06:49,2420,42.8014,5.9826,13.2978,4.59903,2453.491,38.4866
2023-12-21T08:09:49,2420,42.8014,5.9826,13.2976,4.59906,2453.469,38.4870
2023-12-21T08:12:49,2420,42.8014,5.9826,13.2979,4.59908,2453.499,38.4869
2023-12-21T08:15:49,2420,42.8014,5.9826,13.2975,4.59903,2453.491,38.4868
2023-12-21T08:18:49,2420,42.8014,5.9826,13.2975,4.59901,2453.469,38.4867
2023-12-21T08:21:49,2420,42.8014,5.9826,13.2975,4.59900,2453.491,38.4866
2023-12-21T08:24:49,2420,42.8014,5.9826,13.2973,4.59902,2453.491,38.4869
2023-12-21T08:27:49,2420,42.8014,5.9826,13.2973,4.59897,2453.528,38.4865
2023-12-21T08:30:49,2420,42.8014,5.9826,13.2975,4.59908,2453.469,38.4873
2023-12-21T08:33:49,2420,42.8014,5.9826,13.2973,4.59898,2453.483,38.4866
2023-12-21T08:36:49,2420,42.8014,5.9826,13.2977,4.59903,2453.491,38.4867
2023-12-21T08:39:49,2420,42.8014,5.9826,13.2978,4.59906,2453.491,38.4868
2023-12-21T08:42:49,2420,42.8014,5.9826,13.2976,4.59900,2453.491,38.4865
2023-12-21T08:45:49,2420,42.8014,5.9826,13.2977,4.59906,2453.491,38.4869
2023-12-21T08:48:49,2420,42.8014,5.9826,13.2978,4.59908,2453.469,38.4871
2023-12-21T08:51:49,2420,42.8014,5.9826,13.2976,4.59906,2453.469,38.4871
2023-12-21T08:54:49,2420,42.8014,5.9826,13.2976,4.59905,2453.469,38.4869
2023-12-21T08:57:49,2420,42.8014,5.9826,13.2974,4.59895,2453.446,38.4862
2023-12-21T09:00:49,2420,42.8014,5.9826,13.2977,4.59901,2453.454,38.4865
2023-12-21T09:03:49,2420,42.8014,5.9826,13.2975,4.59903,2453.469,38.4869
2023-12-21T09:06:49,2420,42.8014,5.9826,13.2979,4.59906,2453.491,38.4867
2023-12-21T09:09:49,2420,42.8014,5.9826,13.2974,4.59894,2453.506,38.4861
2023-12-21T09:12:49,2420,42.8014,5.9826,13.2978,4.59897,2453.469,38.4860
2023-12-21T09:15:49,2420,42.8014,5.9826,13.2972,4.59903,2453.514,38.4871
2023-12-21T09:18:49,2420,42.8014,5.9826,13.2977,4.59893,2453.469,38.4857
2023-12-21T09:21:49,2420,42.8014,5.9826,13.2973,4.59899,2453.469,38.4866
2023-12-21T09:24:49,2420,42.8014,5.9826,13.2971,4.59900,2453.469,38.4869
2023-12-21T09:27:49,2420,42.8014,5.9826,13.2975,4.59900,2453.469,38.4867
2023-12-21T09:30:49,2420,42.8014,5.9826,13.2975,4.59911,2453.491,38.4876
2023-12-21T09:33:49,2420,42.8014,5.9826,13.2976,4.59905,2453.537,38.4869
2023-12-21T09:36:49,2420,42.8014,5.9826,13.2975,4.59899,2453.483,38.4865
2023-12-21T09:39:49,2420,42.8014,5.9826,13.2974,4.59900,2453.499,38.4866
2023-12-21T09:42:49,2420,42.8014,5.9826,13.2973,4.59897,2453.514,38.4865
2023-12-21T09:45:49,2420,42.8014,5.9826,13.2975,4.59898,2453.499,38.4864
2023-12-21T09:48:49,2420,42.8014,5.9826,13.2975,4.59904,2453.491,38.4869
2023-12-21T09:51:49,2420,42.8014,5.9826,13.2979,4.59904,2453.491,38.4865
2023-12-21T09:54:49,2420,42.8014,5.9826,13.2978,4.59900,2453.514,38.4863
2023-12-21T09:57:49,2420,42.8014,5.9826,13.2978,4.59899,2453.491,38.4861
2023-12-21T10:00:49,2420,42.8014,5.9826,13.2975,4.59910,2453.514,38.4875
2023-12-21T10:03:49,2420,42.8014,5.9826,13.2974,4.59900,2453.514,38.4866
2023-12-21T10:06:49,2420,42.8014,5.9826,13.2976,4.59899,2453.506,38.4864
2023-12-21T10:09:49,2420,42.8014,5.9826,13.2974,4.59902,2453.491,38.4869
2023-12-21T10:12:49,2420,42.8014,5.9826,13.2979,4.59908,2453.537,38.4870
2023-12-21T10:15:49,2420,42.8014,5.9826,13.2976,4.59900,2453.514,38.4865
2023-12-21T10:18:49,2420,42.8014,5.9826,13.2974,4.59906,2453.514,38.4873
2023-12-21T10:21:49,2420,42.8014,5.9826,13.2975,4.59908,2453.528,38.4874
2023-12-21T10:24:49,2420,42.8014,5.9826,13.2978,4.59901,2453.514,38.4864
2023-12-21T10:27:49,2420,42.8014,5.9826,13.2976,4.59908,2453.537,38.4872
2023-12-21T10:30:49,2420,42.8014,5.9826,13.2976,4.59912,2453.514,38.4876
2023-12-21T10:33:49,2420,42.8014,5.9826,13.2976,4.59911,2453.514,38.4875
2023-12-21T10:36:49,2420,42.8014,5.9826,13.2976,4.59916,2453.499,38.4880
2023-12-21T10:39:49,2420,42.8014,5.9826,13.2975,4.59910,2453.551,38.4875
2023-12-21T10:42:49,2420,42.8014,5.9826,13.2973,4.59897,2453.514,38.4865
2023-12-21T10:45:49,2420,42.8014,5.9826,13.2969,4.59896,2453.559,38.4868
2023-12-21T10:48:49,2420,42.8014,5.9826,13.2974,4.59908,2453.574,38.4874
2023-12-21T10:51:49,2420,42.8014,5.9826,13.2976,4.59903,2453.559,38.4867
2023-12-21T10:54:49,2420,42.8014,5.9826,13.2977,4.59898,2453.537,38.4862
2023-12-21T10:57:49,2420,42.8014,5.9826,13.2974,4.59900,2453.499,38.4867
2023-12-21T11:00:49,2420,42.8014,5.9826,13.2972,4.59903,2453.537,38.4871
2023-12-21T11:03:49,2420,42.8014,5.9826,13.2973,4.59898,2453.559,38.4865
2023-12-21T11:06:49,2420,42.8014,5.9826,13.2974,4.59902,2453.559,38.4868
2023-12-21T11:09:49,2420,42.8014,5.9826,13.2969,4.59905,2453.559,38.4876
2023-12-21T11:12:49,2420,42.8014,5.9826,13.2972,4.59909,2453.537,38.4877
2023-12-21T11:15:49,2420,42.8014,5.9826,13.2976,4.59900,2453.559,38.4864
2023-12-21T11:18:49,2420,42.8014,5.9826,13.2975,4.59900,2453.559,38.4866
2023-12-21T11:21:49,2420,42.8014,5.9826,13.2975,4.59901,2453.582,38.4867
2023-12-21T11:24:49,2420,42.8014,5.9826,13.2975,4.59902,2453.559,38.4867
2023-12-21T11:27:49,2420,42.8014,5.9826,13.2972,4.59899,2453.559,38.4868
2023-12-21T11:30:49,2420,42.8014,5.9826,13.2973,4.59896,2453.559,38.4863
2023-12-21T11:33:49,2420,42.8014,5.9826,13.2973,4.59894,2453.559,38.4862
2023-12-21T11:36:49,2420,42.8014,5.9826,13.2972,4.59900,2453.559,38.4869
2023-12-21T11:39:49,2420,42.8014,5.9826,13.2974,4.59900,2453.544,38.4867
2023-12-21T11:42:49,2420,42.8014,5.9826,13.2971,4.59898,2453.559,38.4867
2023-12-21T11:45:49,2420,42.8014,5.9826,13.2971,4.59899,2453.567,38.4868
2023-12-21T11:48:49,2420,42.8014,5.9826,13.2973,4.59903,2453.559,38.4871
2023-12-21T11:51:49,2420,42.8014,5.9826,13.2972,4.59901,2453.559,38.4870
2023-12-21T11:54:49,2420,42.8014,5.9826,13.2975,4.59897,2453.544,38.4862
2023-12-21T11:57:49,2420,42.8014,5.9826,13.2971,4.59905,2453.559,38.4874
2023-12-21T12:00:49,2420,42.8014,5.9826,13.2976,4.59899,2453.567,38.4863
2023-12-21T12:03:49,2420,42.8014,5.9826,13.2973,4.59898,2453.582,38.4866
2023-12-21T12:06:49,2420,42.8014,5.9826,13.2975,4.59897,2453.559,38.4863
2023-12-21T12:09:49,2420,42.8014,5.9826,13.2973,4.59897,2453.574,38.4865
2023-12-21T12:12:49,2420,42.8014,5.9826,13.2976,4.59897,2453.582,38.4861
2023-12-21T12:15:49,2420,42.8014,5.9826,13.2972,4.59896,2453.582,38.4865
2023-12-21T12:18:49,2420,42.8014,5.9826,13.2975,4.59897,2453.567,38.4863
2023-12-21T12:21:49,2420,42.8014,5.9826,13.2976,4.59897,2453.619,38.4861
2023-12-21T12:24:50,2420,42.8014,5.9826,13.2971,4.59899,2453.604,38.4868
2023-12-21T12:27:49,2420,42.8014,5.9826,13.2972,4.59901,2453.559,38.4870
2023-12-21T12:30:49,2420,42.8014,5.9826,13.2971,4.59897,2453.582,38.4867
2023-12-21T12:33:49,2420,42.8014,5.9826,13.2973,4.59898,2453.582,38.4866
2023-12-21T12:36:49,2420,42.8014,5.9826,13.2974,4.59894,2453.582,38.4861
2023-12-21T12:39:49,2420,42.8014,5.9826,13.2975,4.59900,2453.582,38.4866
2023-12-21T12:42:49,2420,42.8014,5.9826,13.2975,4.59897,2453.604,38.4863
2023-12-21T12:45:49,2420,42.8014,5.9826,13.2974,4.59897,2453.582,38.4863
2023-12-21T12:48:49,2420,42.8014,5.9826,13.2972,4.59897,2453.567,38.4866
2023-12-21T12:51:49,2420,42.8014,5.9826,13.2973,4.59897,2453.604,38.4865
2023-12-21T12:54:49,2420,42.8014,5.9826,13.2969,4.59895,2453.604,38.4867
2023-12-21T12:57:49,2420,42.8014,5.9826,13.2973,4.59901,2453.604,38.4868
2023-12-21T13:00:49,2420,42.8014,5.9826,13.2973,4.59901,2453.590,38.4868
2023-12-21T13:03:49,2420,42.8014,5.9826,13.2977,4.59897,2453.604,38.4861
2023-12-21T13:06:49,2420,42.8014,5.9826,13.2973,4.59914,2453.604,38.4881
2023-12-21T13:09:49,2420,42.8014,5.9826,13.2976,4.59897,2453.627,38.4861
2023-12-21T13:12:49,2420,42.8014,5.9826,13.2973,4.59906,2453.604,38.4873
2023-12-21T13:15:49,2420,42.8014,5.9826,13.2971,4.59902,2453.627,38.4871
2023-12-21T13:18:50,2420,42.8014,5.9826,13.2973,4.59906,2453.604,38.4874
2023-12-21T13:21:49,2420,42.8014,5.9826,13.2978,4.59907,2453.604,38.4869
2023-12-21T13:24:49,2420,42.8014,5.9826,13.2975,4.59905,2453.582,38.4870
2023-12-21T13:27:49,2420,42.8014,5.9826,13.2971,4.59900,2453.582,38.4870
2023-12-21T13:30:49,2420,42.8014,5.9826,13.2973,4.59900,2453.574,38.4867
2023-12-21T13:33:49,2420,42.8014,5.9826,13.2972,4.59904,2453.567,38.4872
2023-12-21T13:36:49,2420,42.8014,5.9826,13.2973,4.59899,2453.582,38.4866
2023-12-21T13:39:49,2420,42.8014,5.9826,13.2978,4.59900,2453.604,38.4863
2023-12-21T13:42:49,2420,42.8014,5.9826,13.2974,4.59923,2453.582,38.4888
2023-12-21T13:45:49,2420,42.8014,5.9826,13.2979,4.59909,2453.604,38.4870
2023-12-21T13:48:49,2420,42.8014,5.9826,13.2975,4.59903,2453.619,38.4868
2023-12-21T13:51:49,2420,42.8014,5.9826,13.2970,4.59902,2453.582,38.4872
2023-12-21T13:54:49,2420,42.8014,5.9826,13.2971,4.59902,2453.627,38.4871
2023-12-21T13:57:49,2420,42.8014,5.9826,13.2975,4.59908,2453.582,38.4873
2023-12-21T14:00:49,2420,42.8014,5.9826,13.2979,4.59908,2453.590,38.4870
2023-12-21T14:03:49,2420,42.8014,5.9826,13.2976,4.59920,2453.582,38.4883
2023-12-21T14:06:49,2420,42.8014,5.9826,13.2975,4.59906,2453.604,38.4871
2023-12-21T14:09:49,2420,42.8014,5.9826,13.2973,4.59914,2453.604,38.4880
2023-12-21T14:12:49,2420,42.8014,5.9826,13.2973,4.59907,2453.604,38.4874
2023-12-21T14:15:49,2420,42.8014,5.9826,13.2975,4.59899,2453.604,38.4864
2023-12-21T14:18:49,2420,42.8014,5.9826,13.2972,4.59900,2453.604,38.4868
2023-12-21T14:21:49,2420,42.8014,5.9826,13.2972,4.59904,2453.604,38.4872
2023-12-21T14:24:49,2420,42.8014,5.9826,13.2975,4.59905,2453.612,38.4870
2023-12-21T14:27:49,2420,42.8014,5.9826,13.2973,4.59903,2453.627,38.4871
2023-12-21T14:30:49,2420,42.8014,5.9826,13.2973,4.59912,2453.604,38.4879
2023-12-21T14:33:49,2420,42.8014,5.9826,13.2978,4.59928,2453.604,38.4888
2023-12-21T14:36:49,2420,42.8014,5.9826,13.2979,4.59931,2453.627,38.4890
2023-12-21T14:39:49,2420,42.8014,5.9826,13.2991,4.59964,2453.627,38.4909
2023-12-21T14:42:49,2420,42.8014,5.9826,13.2987,4.59950,2453.590,38.4901
2023-12-21T14:45:49,2420,42.8014,5.9826,13.2976,4.59970,2453.604,38.4930
2023-12-21T14:48:49,2420,42.8014,5.9826,13.2985,4.60054,2453.582,38.5001
2023-12-21T14:51:49,2420,42.8014,5.9826,13.2986,4.60209,2453.604,38.5146
2023-12-21T14:54:49,2420,42.8014,5.9826,13.3068,4.60065,2453.582,38.4929
2023-12-21T14:57:49,2420,42.8014,5.9826,13.3029,4.60015,2453.590,38.4920
2023-12-21T15:00:49,2420,42.8014,5.9826,13.3035,4.60082,2453.582,38.4978
2023-12-21T15:03:49,2420,42.8014,5.9826,13.3076,4.60121,2453.604,38.4974
2023-12-21T15:06:49,2420,42.8014,5.9826,13.3040,4.60321,2453.619,38.5199
2023-12-21T15:09:49,2420,42.8014,5.9826,13.3047,4.60043,2453.582,38.4929
2023-12-21T15:12:49,2420,42.8014,5.9826,13.3331,4.59970,2453.627,38.4578
2023-12-21T15:15:49,2420,42.8014,5.9826,13.3211,4.60033,2453.604,38.4757
2023-12-21T15:18:49,2420,42.8014,5.9826,13.3130,4.59978,2453.619,38.4785
2023-12-21T15:21:49,2420,42.8014,5.9826,13.3030,4.60081,2453.596,38.4981
2023-12-21T15:24:49,2420,42.8014,5.9826,13.3494,4.60082,2453.582,38.4523
2023-12-21T15:27:49,2420,42.8014,5.9826,13.3784,4.60037,2453.619,38.4192
2023-12-21T15:30:49,2420,42.8014,5.9826,13.3203,4.60001,2453.559,38.4734
2023-12-21T15:33:49,2420,42.8014,5.9826,13.3055,4.60002,2453.604,38.4882
2023-12-21T15:36:49,2420,42.8014,5.9826,13.3357,4.60001,2453.582,38.4581
2023-12-21T15:39:49,2420,42.8014,5.9826,13.3122,4.60029,2453.604,38.4842
2023-12-21T15:42:49,2420,42.8014,5.9826,13.3039,4.60042,2453.619,38.4937
2023-12-21T15:45:49,2420,42.8014,5.9826,13.3087,4.59977,2453.596,38.4827
2023-12-21T15:48:49,2420,42.8014,5.9826,13.3185,4.59998,2453.619,38.4749
2023-12-21T15:51:49,2420,42.8014,5.9826,13.3272,4.59987,2453.641,38.4653
2023-12-21T15:54:49,2420,42.8014,5.9826,13.3184,4.59996,2453.627,38.4749
2023-12-21T15:57:49,2420,42.8014,5.9826,13.3128,4.59988,2453.596,38.4797
2023-12-21T16:00:49,2420,42.8014,5.9826,13.3132,4.59985,2453.619,38.4790
2023-12-21T16:03:49,2420,42.8014,5.9826,13.3041,4.59977,2453.574,38.4872